Regional Weather Roundup
Issued by NWS State College, PA

Home | Current Version | Previous Version | Graphics & Text | Print | Product List | Glossary Off
Versions: 1 2 3 4 5 6 7 8 9 10 11 12 13 14 15 16 17 18 19 20 21 22 23 24 25 26 27 28 29 30 31 32 33 34 35 36 37 38 39 40 41 42 43 44 45 46 47 48 49 50

000
ASUS41 KCTP 250803
RWRCTP

REGIONAL WEATHER ROUNDUP
NATIONAL WEATHER SERVICE STATE COLLEGE PA
400 AM EDT TUE JUL 25 2017

Note: "fair" indicates few or no clouds below 12,000 feet with no
significant weather and/or obstructions to visibility.

* = STATION THAT DOES NOT REPORT PRECIPITATION /E.G. RAIN...SNOW...ETC/
    THUNDER OR FOG.

PAZ002>004-007>009-013>016-020>023-029>032-250900-
WESTERN PENNSYLVANIA

CITY           SKY/WX    TMP DP  RH WIND       PRES   REMARKS
ERIE           CLOUDY    65  56  72 N12       30.07R
MEADVILLE      LGT RAIN  59  59 100 W3        30.09R
FRANKLIN*      CLOUDY    59  54  82 W8        30.09S
NEW CASTLE     CLOUDY    63  56  78 NW5       30.10R
BEAVER COUNTY  NOT AVBL
BUTLER*        CLOUDY    63  54  72 W3        30.08S
PITTSBURGH INT CLOUDY    64  56  75 NW9       30.09R
PITTSBURGH     CLOUDY    63  53  70 NW6       30.08R
INDIANA*       CLOUDY    63  59  88 VRB5      30.10R
LATROBE        CLOUDY    63  57  82 W6        30.09R
WASHINGTON CO* CLOUDY    61  55  82 W5        30.10S
$$

PAZ004>006-010>012-017>019-024>028-033>037-041-042-045-046-049>053-250900-
CENTRAL PENNSYLVANIA

CITY           SKY/WX    TMP DP  RH WIND       PRES   REMARKS
BRADFORD       LGT RAIN  59  59 100 N8        30.05R FOG
DUBOIS         CLOUDY    59  56  89 W5        30.06R
CLEARFIELD     CLOUDY    62  58  86 W10       30.05R
JOHNSTOWN      CLOUDY    59  55  87 NW13      30.07S
ALTOONA        CLOUDY    63  56  78 W9        30.05R
STATE COLLEGE  CLOUDY    64  56  77 W9        30.02R
WILLIAMSPORT   CLOUDY    68  59  73 W9        29.96R
SELINSGROVE    MOCLDY    62  61  96 CALM      29.98S
FT INDIANTOWN  CLEAR     65  58  78 NW5       29.97S
CAPITAL CITY   CLEAR     66  57  72 W6        29.97S
HARRISBURG     PTCLDY    68  58  70 NW13      29.96R
YORK           NOT AVBL
$$

PAZ038>040-043-044-047-048-054-055-060>062-067>071-250900-
EASTERN PENNSYLVANIA

CITY           SKY/WX    TMP DP  RH WIND       PRES   REMARKS
SCRANTON       CLOUDY    67  63  87 CALM      29.96S
MOUNT POCONO   CLOUDY    60  60 100 CALM      29.99S
ALLENTOWN      CLOUDY    66  62  87 E5        29.96F
QUAKERTOWN*    CLOUDY    63  63 100 CALM      29.98S
READING        CLOUDY    68  68 100 N5        29.95S
LANCASTER      CLEAR     68  65  90 CALM      29.96S
COATESVILLE    NOT AVBL
POTTSTOWN      FOG       64  64 100 E5        29.98S VSB 1
BLUE BELL      CLOUDY    63  63 100 E6        29.97S
DOYLESTOWN     CLOUDY    63  62  97 CALM      29.96S
WILLOW GROVE   NOT AVBL
NORTH PHILA    CLOUDY    67  64  90 NE6       29.97F FOG
PHILADELPHIA   CLOUDY    67  65  93 NE6       29.96R FOG
$$




USA.gov is the U.S. government's official web portal to all federal, state and local government web resources and services.